Location: Montjean
(48.0167°N, 0.9667°W)
Time: 20:42:02
(UTC+02:00)

ISS - Visible Passes

Search period start: 22 July 2018 00:00
Search period end: 01 August 2018 00:00
Orbit: 402 x 408 km, 51.6° (Epoch: 22 July)

Date Brightness Start Highest point End Pass type
(mag) Time Alt. Az. Time Alt. Az. Time Alt. Az.
22 Jul -3.2 00:29:14 10° W 00:32:29 58° NNW 00:35:45 10° ENE visible
22 Jul -2.6 02:06:08 10° WNW 02:09:19 43° N 02:12:29 10° ENE visible
22 Jul -4.0 03:42:42 10° WNW 03:46:00 84° SSW 03:49:18 10° ESE visible
22 Jul -2.3 05:19:52 10° W 05:22:06 17° SW 05:24:19 10° S visible
22 Jul -3.7 23:37:02 10° WSW 23:40:19 78° NNW 23:43:37 10° ENE visible
23 Jul -2.5 01:13:55 10° WNW 01:17:04 42° N 01:20:14 10° ENE visible
23 Jul -3.3 02:50:34 10° WNW 02:53:22 56° NW 02:53:22 56° NW visible
23 Jul -3.9 22:44:56 10° WSW 22:48:12 71° SSE 22:51:29 10° ENE visible
24 Jul -2.7 00:21:39 10° W 00:24:50 45° N 00:28:01 10° ENE visible
24 Jul -3.1 01:58:26 10° WNW 02:01:40 52° NNE 02:01:45 52° NNE visible
24 Jul -3.0 23:29:23 10° W 23:32:36 53° NNW 23:35:51 10° ENE visible
25 Jul -2.7 01:06:16 10° WNW 01:09:26 44° N 01:10:47 27° ENE visible
25 Jul -1.3 02:42:48 10° WNW 02:43:24 14° WNW 02:43:24 14° WNW visible
25 Jul -3.5 22:37:07 10° WSW 22:40:23 69° NNW 22:43:40 10° ENE visible
26 Jul -2.6 00:14:01 10° WNW 00:17:10 42° N 00:20:01 12° ENE visible
26 Jul -2.4 01:50:38 10° WNW 01:52:38 34° WNW 01:52:38 34° WNW visible
26 Jul -2.6 23:21:44 10° WNW 23:24:53 43° N 23:28:04 10° ENE visible
27 Jul -3.3 00:58:27 10° WNW 01:01:43 57° NNE 01:01:57 55° NE visible
27 Jul -2.8 22:29:25 10° W 22:32:37 49° N 22:35:50 10° ENE visible
28 Jul -2.9 00:06:16 10° WNW 00:09:27 47° N 00:11:19 21° ENE visible
28 Jul -1.6 01:42:47 10° WNW 01:43:57 20° WNW 01:43:57 20° WNW visible
28 Jul -2.6 23:14:00 10° WNW 23:17:09 42° N 23:20:19 10° ENE visible
29 Jul -3.4 00:50:34 10° WNW 00:53:21 61° WNW 00:53:21 61° WNW visible
29 Jul -2.6 22:21:41 10° WNW 22:24:50 42° N 22:27:59 10° ENE visible
29 Jul -3.5 23:58:22 10° WNW 00:01:38 63° NNE 00:02:47 35° E visible
30 Jul -1.1 01:35:01 10° W 01:35:25 12° W 01:35:25 12° W visible
30 Jul -3.0 23:06:08 10° WNW 23:09:21 50° NNE 23:12:14 12° E visible
31 Jul -2.6 00:42:41 10° WNW 00:44:52 35° W 00:44:52 35° W visible
31 Jul -2.8 22:13:51 10° WNW 22:17:02 43° N 22:20:11 10° E visible
31 Jul -3.9 23:50:24 10° WNW 23:53:42 81° SSW 23:54:20 54° SE visible
